Weather History for KESF - March, 2014

Change the Weather History Date:

Saturday, March 15, 2014

  Actual Average Record
Temperature  
Mean Temperature 64 °F -  
Max Temperature 75 °F 69 °F 85 °F (1977)
Min Temperature 55 °F 47 °F 27 °F (1988)
Degree Days  
Heating Degree Days 1    
Growing Degree Days 14 (Base 50)    
Moisture  
Dew Point 58 °F    
Average Humidity 83    
Maximum Humidity 94    
Minimum Humidity 59    
Precipitation  
Precipitation 0.69 in - - ()
Sea Level Pressure  
Sea Level Pressure 29.93 in    
Wind  
Wind Speed 3 mph (ESE)    
Max Wind Speed 12 mph    
Max Gust Speed 16 mph    
Visibility 7 miles    
Events Rain    
Averages and records for this station are not official NWS values.
T = Trace of Precipitation, MM = Missing Value Source: NWS Daily Summary

Daily Weather History Graph

Daily Weather History Graph

Search for Another Location

Airport or City:

Trip Planner

Search our weather history database for the weather conditions in past years. The results will help you decide how hot, cold, wet, or windy it might be!

Date:

Astronomy

Mar. 15, 2014 Rise Set
Actual Time 7:19 AM CDT 7:17 PM CDT
Civil Twilight 6:55 AM CDT 7:41 PM CDT
Nautical Twilight 6:26 AM CDT 8:09 PM CDT
Astronomical Twilight 5:58 AM CDT 8:38 PM CDT
Moon 6:37 PM CDT (3/15) 6:29 AM CDT (3/15)
Length of Visible Light 12h 46m
Length of Day
11h 58m
Waxing Gibbous, 99% of the Moon is Illuminated
Mar 15
Waxing Gibbous
Mar 16
Full
Mar 23
Last Quarter
Mar 30
New
Apr 7
First Quarter

Hourly Weather History & Observations

Time (CDT) Temp. Dew Point Humidity Pressure Visibility Wind Dir Wind Speed Gust Speed Precip Events Conditions
12:53 AM 57.9 °F 52.0 °F 81% 30.07 in 10.0 mi Calm Calm - N/A   Overcast
1:53 AM 57.9 °F 52.0 °F 81% 30.07 in 10.0 mi Calm Calm - N/A   Overcast
2:53 AM 57.9 °F 53.1 °F 84% 30.06 in 10.0 mi Calm Calm - N/A   Overcast
3:53 AM 57.0 °F 52.0 °F 83% 30.04 in 10.0 mi Calm Calm - N/A   Overcast
4:53 AM 55.9 °F 52.0 °F 87% 30.03 in 10.0 mi Calm Calm - N/A   Overcast
5:53 AM 55.9 °F 52.0 °F 87% 30.02 in 10.0 mi Calm Calm - N/A   Overcast
6:53 AM 55.9 °F 53.1 °F 90% 30.03 in 10.0 mi Calm Calm - N/A   Overcast
7:53 AM 57.0 °F 53.1 °F 87% 30.03 in 10.0 mi Calm Calm - N/A   Overcast
8:53 AM 59.0 °F 54.0 °F 83% 30.05 in 10.0 mi Calm Calm - N/A   Overcast
9:53 AM 61.0 °F 55.0 °F 81% 30.06 in 10.0 mi Calm Calm - N/A   Overcast
10:53 AM 66.0 °F 55.9 °F 70% 30.05 in 10.0 mi ESE 6.9 mph - N/A   Overcast
11:53 AM 70.0 °F 57.9 °F 65% 30.03 in 10.0 mi Variable 5.8 mph - N/A   Overcast
12:53 PM 73.9 °F 59.0 °F 59% 30.00 in 10.0 mi SSE 10.4 mph - N/A   Overcast
1:53 PM 72.0 °F 59.0 °F 64% 29.96 in 10.0 mi ESE 8.1 mph - N/A   Overcast
2:22 PM 73.9 °F 59.0 °F 59% 29.93 in 10.0 mi SE 10.4 mph - N/A   Overcast
2:53 PM 73.0 °F 59.0 °F 61% 29.91 in 10.0 mi East 6.9 mph 16.1 mph N/A   Mostly Cloudy
3:53 PM 72.0 °F 57.0 °F 59% 29.88 in 10.0 mi SE 11.5 mph - N/A   Overcast
4:53 PM 66.9 °F 61.0 °F 81% 29.86 in 4.0 mi Calm Calm - 0.03 in Rain Rain
5:27 PM 64.9 °F 63.0 °F 93% 29.88 in 1.8 mi Calm Calm - 0.03 in Rain Rain
5:53 PM 64.9 °F 62.1 °F 90% 29.86 in 2.5 mi ESE 4.6 mph - 0.11 in Rain Rain
6:04 PM 64.9 °F 62.1 °F 90% 29.87 in 3.0 mi SE 4.6 mph - 0.03 in Rain Rain
6:53 PM 64.0 °F 61.0 °F 90% 29.86 in 2.0 mi East 3.5 mph - 0.14 in Rain Rain
7:06 PM 64.0 °F 61.0 °F 90% 29.86 in 3.0 mi East 3.5 mph - 0.02 in Rain Rain
7:24 PM 63.0 °F 61.0 °F 93% 29.86 in 2.0 mi SSE 5.8 mph - 0.09 in Rain Heavy Rain
7:39 PM 63.0 °F 61.0 °F 93% 29.84 in 3.0 mi ESE 8.1 mph - 0.13 in Rain Rain
7:53 PM 63.0 °F 61.0 °F 93% 29.85 in 3.0 mi SE 4.6 mph - 0.16 in Rain Rain
8:37 PM 63.0 °F 61.0 °F 93% 29.83 in 3.0 mi East 5.8 mph - 0.06 in Rain Rain
8:48 PM 62.6 °F 60.8 °F 94% 29.83 in 5.0 mi East 5.8 mph - 0.06 in Rain Light Rain
8:53 PM 63.0 °F 61.0 °F 93% 29.83 in 6.0 mi East 6.9 mph - 0.06 in Rain Light Rain
9:53 PM 63.0 °F 61.0 °F 93% 29.81 in 3.0 mi Variable 4.6 mph - 0.11 in Rain Rain
10:53 PM 63.0 °F 61.0 °F 93% 29.77 in 10.0 mi East 10.4 mph - 0.03 in   Overcast
11:53 PM 63.0 °F 61.0 °F 93% 29.70 in 6.0 mi ESE 11.5 mph - 0.05 in Rain Light Rain